Powrót do katalogu

SL-16 DEB

AktywnyLEO
NORAD 22611·DEBRIS·🇷🇺 Russia

Wystrzelony Mar 26, 1993 z Baikonur Cosmodrome

Loading…

Następne Przeloty (najbliższe 24 godziny)

TLE

ŚwieżeSource: Space-Track

Epoka: Sep 14, 2026, 10:51 UTC

1 22611U 93016V   26257.45224688  .00000110  00000-0  13625-3 0  9994
2 22611  70.9888 287.7209 0172099 303.8594 120.7278 13.78785085681744

Śledź SL-16 DEB w czasie rzeczywistym z AllMySat

Download on the App Store